User: anonymous
Location: Unspecified
(0.0000°N, 0.0000°E)
Time: 08:50:07
(UTC+00:00)
Language:

Vanguard 2 Rocket - Orbit

View from above orbital plane
View from above orbital plane
View from above satellite
View from above satellite

Ground track
Ground track

The orbit data is extracted from the following two-line orbital elements,

1 00012U 59001B   14236.10577739  .00000329  00000-0  20171-3 0  8967
2 00012 032.8975 220.2557 1671256 072.1362 305.3925 11.43347450279211
Epoch (UTC): 24 August 2014 02:32:19
Eccentricity: 0.1671256
inclination: 32.8975°
perigee height: 554 km
apogee height: 3336 km
right ascension of ascending node: 220.2557°
argument of perigee: 72.1362°
revolutions per day: 11.43347450
mean anomaly at epoch: 305.3925°
orbit number at epoch: 27921

The dashed part of the orbit path shows where the satellite is in the earth's shadow,  

DLR